Simultaneous Nadir Overpasses (SNOs) Predictions

Prediction of SNOs between GOES-16 and LANDSAT-8 Satellite Orbit:

Table of predicted SNOs for the next 14.0 days since TLE Epoch: 5/25/2019
Index Date Time (GOES-16) GOES-16 Lat,Lon LANDSAT-8 Lat,Lon Distance(km) Time Diff (sec)
1 05/25/2019 15:00:05 0.01, -75.20 -0.61, -72.46 312.54 80
2 05/26/2019 03:24:09 0.00, -75.18 -0.53, -77.64 279.92 80
3 05/28/2019 03:09:19 0.02, -75.19 0.12, -74.69 56.87 80
4 05/30/2019 02:57:09 0.02, -75.21 0.76, -71.74 394.62 80
5 05/30/2019 15:18:25 -0.02, -75.23 0.33, -76.90 189.08 80
6 06/01/2019 15:06:15 -0.01, -75.25 -0.32, -73.94 149.42 80
7 06/02/2019 03:30:18 0.01, -75.24 -0.80, -79.13 442.23 80
8 06/03/2019 14:54:04 -0.01, -75.27 -0.91, -70.98 487.71 80
9 06/04/2019 03:18:08 0.01, -75.26 -0.15, -76.18 103.99 80
10 06/06/2019 03:03:18 0.03, -75.28 0.44, -73.22 234.35 80
11 06/06/2019 15:27:13 -0.03, -75.31 0.65, -78.37 349.45 80




NCC Satellite Simultaneous Nadir Overpasses (SNOs) Prediction Service
